Location: Katowice
(50.2611°N, 19.0242°E)
Time: 08:58:50
(UTC+02:00)

A-11 Canister half - Pass Details

Date: 30 July 2019
Orbit: 1526 x 1682 km, 47.3° (Epoch: 24 August)

Event Time Altitude Azimuth Distance (km) Brightness Sun altitude
Rises 16:51:30 0° 186° (S) 4,919 11.8 33.0°
Reaches altitude 10° 16:55:49 10° 170° (S) 3,937 11.2 32.3°
Maximum altitude 17:02:25 20° 129° (SE) 3,209 10.5 31.3°
Drops below altitude 10° 17:08:57 10° 87° (E) 3,916 10.7 30.2°
Sets 17:13:11 0° 72° (ENE) 4,887 11.1 29.6°
